Regional Weather Roundup
Issued by NWS

Home | Current Version | Previous Version | Text Only | Print | Product List | Glossary On
Versions: 1 2 3 4 5 6 7 8 9 10 11 12 13 14 15 16 17 18 19 20 21 22 23 24 25 26 27 28 29 30 31 32 33 34 35 36 37 38 39 40 41 42 43 44 45 46 47 48 49 50
000
ASUS43 KOAX 301310
RWRNE

WEATHER ROUNDUP FOR NEBRASKA
NATIONAL WEATHER SERVICE OMAHA NE
700 AM CST FRI JAN 30 2015

NOTES: SATELLITE DATA IS BEING USED TO AUGMENT CLOUD COVER ABOVE
       12000 FEET.
       "FAIR" INDICATES FEW OR NO CLOUDS BELOW 12,000 FEET WITH NO
       SIGNIFICANT WEATHER AND/OR OBSTRUCTIONS TO VISIBILITY.

  * THESE STATIONS DO NOT REPORT WEATHER SUCH AS RAIN...SNOW OR FOG.

NEZ001>004-019>022-054>056-301400-
NEBRASKA PANHANDLE

CITY           SKY/WX    TMP DP  RH WIND       PRES   REMARKS
SCOTTSBLUFF    CLOUDY    28  22  78 E7        30.23F WCI  21
ALLIANCE       CLOUDY    25  21  85 SE7       30.23F WCI  17
CHADRON        CLOUDY    33  19  56 SW5       30.22S WCI  29
KIMBALL        MOCLDY    27  23  84 W5        30.20F WCI  22
SIDNEY         CLOUDY    27  21  78 S3        30.24F
$$

NEZ057>060-069>072-079>082-301400-
SOUTHWEST NEBRASKA

CITY           SKY/WX    TMP DP  RH WIND       PRES   REMARKS
NORTH PLATTE   CLOUDY    20  16  84 E6        30.36F WCI  12
IMPERIAL       CLOUDY    26  20  77 S6        30.32F WCI  19
LEXINGTON      MOCLDY    25  20  83 SE7       30.41S WCI  17
MCCOOK         CLOUDY    22  17  81 CALM      30.39S
OGALLALA       CLOUDY    26  22  84 CALM      30.31F
$$

NEZ005>010-023>029-035>040-094-301400-
NORTH CENTRAL NEBRASKA

CITY           SKY/WX    TMP DP  RH WIND       PRES   REMARKS
VALENTINE      MOCLDY    23  17  78 CALM      30.30F
AINSWORTH      MOCLDY    24  20  83 S9        30.32F WCI  14
BROKEN BOW     MOCLDY    22  18  85 SE7       30.38F WCI  13
O`NEILL        CLEAR     21  20  94 S8        30.40F WCI  11
ORD            PTCLDY    21  17  84 S6        30.42F WCI  13
THEDFORD       MOCLDY    30  22  73 S5        30.33S WCI  25
$$

NEZ041-046>049-061>064-073>077-083>087-301400-
SOUTH CENTRAL NEBRASKA

CITY           SKY/WX    TMP DP  RH WIND       PRES   REMARKS
GRAND ISLAND   PTCLDY    21  18  88 S7        30.47F WCI  12
AURORA         PTCLDY    21  20  95 S5        30.47S WCI  15
HASTINGS       PTCLDY    21  17  84 S8        30.45F WCI  11
HEBRON         PTCLDY    14  10  85 CALM      30.51F
HOLDREGE       MOCLDY    24  20  85 S8        30.42S WCI  15
KEARNEY *      PTCLDY    19  16  86 S8        30.44S WCI   9
YORK           FOG       14  14 100 CALM      30.50R VSB 1/4
$$

NEZ011>018-030>034-042>045-301400-
NORTHEAST NEBRASKA

CITY           SKY/WX    TMP DP  RH WIND       PRES   REMARKS
NORFOLK        PTCLDY    19  15  84 S7        30.47S WCI  10
ALBION         CLEAR     17  14  88 CALM      30.46F
BLAIR          CLEAR     19  16  90 SE3       30.50S
COLUMBUS *     CLEAR     14   7  73 CALM      30.51R
FREMONT        CLEAR     17  15  93 CALM      30.51S
TEKAMAH        PTCLDY    14  10  84 CALM      30.53R
WAYNE          PTCLDY    12  10  89 CALM      30.49R
$$

NEZ050>053-065>068-078-088>093-301400-
SOUTHEAST NEBRASKA

CITY           SKY/WX    TMP DP  RH WIND       PRES   REMARKS
LINCOLN        PTCLDY    13   9  84 CALM      30.54R
OMAHA EPPLEY   PTCLDY    22  16  78 CALM      30.53S
BEATRICE       PTCLDY    12   9  87 CALM      30.53R
FALLS CITY     PTCLDY    16  12  84 W3        30.54R
NEBRASKA CITY  PTCLDY    21  20  97 CALM      30.53R
PLATTSMOUTH    PTCLDY    20  17  90 CALM      30.52R
$$

NEZ044-045-051>053-067-301400-
OMAHA AREA

CITY           SKY/WX    TMP DP  RH WIND       PRES   REMARKS
OMAHA EPPLEY   PTCLDY    22  16  78 CALM      30.53S
BLAIR          CLEAR     19  16  90 SE3       30.50S
FREMONT        CLEAR     17  15  93 CALM      30.51S
MILLARD        CLEAR     17  15  90 CALM      30.53S
OFFUTT AFB     CLEAR     12  10  89 CALM      30.53S
PLATTSMOUTH    PTCLDY    20  17  90 CALM      30.52R
WAHOO          FAIR      14  11  87 CALM      30.51S
$$



USA.gov is the U.S. government's official web portal to all federal, state and local government web resources and services.